512  
ASUS43 KDTX 211010  
RWRMI  
MICHIGAN HOURLY REGIONAL WEATHER ROUNDUP  
NATIONAL WEATHER SERVICE DETROIT/PONTIAC MI  
600 AM EDT FRI JUL 21 2017  
 
NOTE: "FAIR" INDICATES FEW OR NO CLOUDS BELOW 12,000 FEET WITH NO  
SIGNIFICANT WEATHER AND/OR TO VISIBILITY
.  
 
MIZ047>049-052>055-059>063-066>070-074>076-081>083-211100-  
SOUTHEAST LOWER MICHIGAN  
 
CITY SKY/WX TMP DP RH WIND PRES REMARKS
 
ADRIAN CLOUDY 67 66 97 N3 29.98R FOG  
ALMA CLEAR 65 64 97 W10 30.01R  
ANN ARBOR CLEAR 65 65 100 CALM 29.97R FOG  
BAD AXE CLEAR 65 63 91 N3 29.98R  
CARO CLEAR 64 63 96 CALM 29.97R FOG  
DETROIT CITY CLEAR 73 70 90 CALM 29.95R  
DETROIT PTCLDY 73 70 90 N5 29.96R  
FLINT PTCLDY 69 67 93 CALM 29.98R  
GROSSE ILE CLEAR 73 70 91 N3 29.94S  
HILLSDALE FOG 66 64 94 CALM 29.98F VSB 1/4  
HOWELL FOG 66 65 97 NW3 29.98S VSB 1/2  
 
CITY SKY/WX TMP DP RH WIND PRES REMARKS
 
JACKSON LGT RAIN 66 64 93 CALM 29.99R FOG  
LAMBERTVILLE FOG 68 68 98 CALM 29.95S VSB 3/4  
LANSING CLOUDY 66 64 93 NW3 30.00R FOG  
LAPEER FAIR 64 63 96 CALM 29.98R FOG  
MASON CLOUDY 65 65 100 CALM 30.00R FOG  
MONROE CLEAR 69 68 98 CALM 29.95R FOG  
MT. CLEMENS CLEAR 69 69 100 CALM 29.94R  
PONTIAC MOCLDY 69 69 100 CALM 29.96R  
PORT HOPE N/A 66 64 93 CALM 29.96R  
PORT HURON CLEAR 70 68 94 NW6 29.96R  
TRI CITIES CLEAR 67 64 90 NW7 29.99R  
MIDLAND FAIR 63 63 100 CALM 29.99R FOG  
TROY CLEAR 73 69 88 CALM 29.97R  
SAGINAW HB CLEAR 63 61 94 CALM 29.98R  

 
MIZ043>046-050>051-056>058-064>065-071>073-077>080-211100-  
SOUTHWEST LOWER MICHIGAN  
 
CITY SKY/WX TMP DP RH WIND PRES REMARKS
 
BATTLE CREEK CLOUDY 64 63 96 CALM 30.00S  
BENTON HARBOR CLOUDY 65 62 90 CALM 30.00R  
BIG RAPIDS FOG 60 58 94 CALM 30.01R VSB 1  
COLDWATER FOG 67 67 100 CALM 29.99S VSB 1/4  
FREMONT FOG 61 61 100 CALM 30.00R VSB 1/4  
HOLLAND CLOUDY 62 61 96 CALM 30.00S  
GRAND RAPIDS CLOUDY 63 63 100 S6 30.00R  
IONIA FAIR 67 65 96 NW3 30.00R  
KALAMAZOO PTCLDY 66 62 87 N5 29.99F  
LUDINGTON CLOUDY 61 61 100 CALM 29.99R FOG  
MARSHALL FOG 66 65 99 CALM 29.99S VSB 1/4  
MOUNT PLEASANT PTCLDY 65 63 92 W3 29.99R  
MUSKEGON MOCLDY 64 62 93 CALM 30.00R  
SOUTH HAVEN CLOUDY 62 62 99 CALM 29.99S  

 
MIZ016>042-211100-  
NORTHERN LOWER MICHIGAN  
 
CITY SKY/WX TMP DP RH WIND PRES REMARKS
 
ALPENA PTCLDY 61 61 100 CALM 29.97S  
BEAVER ISLAND CLEAR 57 57 100 CALM 29.97R FOG  
BELLAIRE CLEAR 58 56 94 CALM 29.98S  
CADILLAC MOCLDY 64 61 90 E3 30.01R  
CHARLEVOIX CLEAR 63 63 100 CALM 30.00R  
FRANKFORT PTCLDY 62 62 100 CALM 29.98R  
GAYLORD CLEAR 60 56 86 CALM 30.00R  
GRAYLING PTCLDY 56 54 92 CALM 30.01R  
HARBOR SPRINGS FOG 60 60 100 CALM 29.97S VSB 1/2  
HOUGHTON LAKE PTCLDY 57 56 96 CALM 30.01S  
MANISTEE CLOUDY 62 61 96 E3 29.98R  
OSCODA PTCLDY 63 61 94 CALM 29.97R  
PELLSTON PTCLDY 53 53 100 CALM 29.97S FOG  
ROGERS CITY CLEAR 59 57 94 CALM 29.97F  
TRAVERSE CITY CLEAR 63 61 93 CALM 29.96F  

 
MIZ007>008-015-211100-  
EASTERN UPPER MICHIGAN  
 
CITY SKY/WX TMP DP RH WIND PRES REMARKS
 
KINROSS CLEAR 58 57 97 W3 29.96S  
MACKINAC ISLAN CLEAR 61 61 100 SW6 29.96S  
NEWBERRY CLEAR 57 56 97 W3 29.96S  
S. S. MARIE CLEAR 61 59 93 W7 29.95R FOG  
MUNISING N/A 60 60 100 S6 29.95R  

 
MIZ004>006-011>014-085-211100-  
CENTRAL UPPER MICHIGAN  
 
CITY SKY/WX TMP DP RH WIND PRES REMARKS
 
MANISTIQUE CLEAR 55 52 89 CALM 29.96S  
ESCANABA CLEAR 59 58 96 NW3 29.97R  
MENOMINEE CLEAR 62 61 96 CALM 29.98R FOG  
SAWYER-GWINN CLEAR 56 55 95 CALM 29.99R  

 
MIZ001>003-009>011-084-211100-  
WESTERN UPPER MICHIGAN  
 
CITY SKY/WX TMP DP RH WIND PRES REMARKS
 
IRON MOUNTAIN CLEAR 59 54 83 CALM 29.98S  
HOUGHTON PTCLDY 59 54 83 NW6 29.97R  
COPPER HARBOR N/A 60 52 74 W5 29.94R  
IRONWOOD MOCLDY 58 57 97 E3 29.98F  

 
 
ABBREVIATIONS USED IN REMARKS  
TC - TEMPERATURE IN CELSIUS  
WCI - WIND CHILL INDEX  
HX - HEAT INDEX  
VSB - VISIBILITY  
 
 
 
CLICK HERE TO GO TO PREVIOUS BULLETINS.

The Nexlab MI Page Main Text Page